locationName,lineName,date,time,countIn,countOut
�����w�O,��������,2022/7/1,0:00,7,18
�����w�O,��������,2022/7/1,1:00,5,5
�����w�O,��������,2022/7/1,2:00,11,12
�����w�O,��������,2022/7/1,3:00,7,4
�����w�O,��������,2022/7/1,4:00,5,3
�����w�O,��������,2022/7/1,5:00,13,7
�����w�O,��������,2022/7/1,6:00,83,66
�����w�O,��������,2022/7/1,7:00,201,197
�����w�O,��������,2022/7/1,8:00,133,198
�����w�O,��������,2022/7/1,9:00,142,171
�����w�O,��������,2022/7/1,10:00,149,192
�����w�O,��������,2022/7/1,11:00,148,168
�����w�O,��������,2022/7/1,12:00,252,206
�����w�O,��������,2022/7/1,13:00,184,249
�����w�O,��������,2022/7/1,14:00,146,187
�����w�O,��������,2022/7/1,15:00,196,220
�����w�O,��������,2022/7/1,16:00,372,301
�����w�O,��������,2022/7/1,17:00,278,244
�����w�O,��������,2022/7/1,18:00,216,186
�����w�O,��������,2022/7/1,19:00,182,177
�����w�O,��������,2022/7/1,20:00,102,109
�����w�O,��������,2022/7/1,21:00,126,162
�����w�O,��������,2022/7/1,22:00,58,82
�����w�O,��������,2022/7/1,23:00,28,60
�����w�O,��������,2022/7/2,0:00,23,29
�����w�O,��������,2022/7/2,1:00,6,9
�����w�O,��������,2022/7/2,2:00,7,1
�����w�O,��������,2022/7/2,3:00,6,8
�����w�O,��������,2022/7/2,4:00,16,1
�����w�O,��������,2022/7/2,5:00,14,14
�����w�O,��������,2022/7/2,6:00,45,31
�����w�O,��������,2022/7/2,7:00,135,73
�����w�O,��������,2022/7/2,8:00,118,126
�����w�O,��������,2022/7/2,9:00,212,229
�����w�O,��������,2022/7/2,10:00,205,194
�����w�O,��������,2022/7/2,11:00,242,229
�����w�O,��������,2022/7/2,12:00,245,269
�����w�O,��������,2022/7/2,13:00,328,279
�����w�O,��������,2022/7/2,14:00,198,243
�����w�O,��������,2022/7/2,15:00,423,381
�����w�O,��������,2022/7/2,16:00,213,207
�����w�O,��������,2022/7/2,17:00,286,266
�����w�O,��������,2022/7/2,18:00,301,260
�����w�O,��������,2022/7/2,19:00,153,161
�����w�O,��������,2022/7/2,20:00,98,163
�����w�O,��������,2022/7/2,21:00,126,187
�����w�O,��������,2022/7/2,22:00,109,176
�����w�O,��������,2022/7/2,23:00,48,56
�����w�O,��������,2022/7/3,0:00,12,23
�����w�O,��������,2022/7/3,1:00,5,6
�����w�O,��������,2022/7/3,2:00,5,5
�����w�O,��������,2022/7/3,3:00,6,5
�����w�O,��������,2022/7/3,4:00,7,3
�����w�O,��������,2022/7/3,5:00,19,14
�����w�O,��������,2022/7/3,6:00,30,41
�����w�O,��������,2022/7/3,7:00,75,48
�����w�O,��������,2022/7/3,8:00,141,123
�����w�O,��������,2022/7/3,9:00,140,117
�����w�O,��������,2022/7/3,10:00,249,214
�����w�O,��������,2022/7/3,11:00,224,240
�����w�O,��������,2022/7/3,12:00,302,284
�����w�O,��������,2022/7/3,13:00,318,271
�����w�O,��������,2022/7/3,14:00,410,318
�����w�O,��������,2022/7/3,15:00,335,299
�����w�O,��������,2022/7/3,16:00,239,229
�����w�O,��������,2022/7/3,17:00,208,213
�����w�O,��������,2022/7/3,18:00,158,157
�����w�O,��������,2022/7/3,19:00,99,130
�����w�O,��������,2022/7/3,20:00,89,80
�����w�O,��������,2022/7/3,21:00,73,92
�����w�O,��������,2022/7/3,22:00,45,71
�����w�O,��������,2022/7/3,23:00,10,14
�����w�O,��������,2022/7/4,0:00,3,17
�����w�O,��������,2022/7/4,1:00,1,4
�����w�O,��������,2022/7/4,2:00,0,0
�����w�O,��������,2022/7/4,3:00,3,6
�����w�O,��������,2022/7/4,4:00,5,2
�����w�O,��������,2022/7/4,5:00,7,6
�����w�O,��������,2022/7/4,6:00,79,46
�����w�O,��������,2022/7/4,7:00,213,224
�����w�O,��������,2022/7/4,8:00,117,197
�����w�O,��������,2022/7/4,9:00,128,136
�����w�O,��������,2022/7/4,10:00,124,144
�����w�O,��������,2022/7/4,11:00,160,161
�����w�O,��������,2022/7/4,12:00,165,180
�����w�O,��������,2022/7/4,13:00,125,137
�����w�O,��������,2022/7/4,14:00,128,176
�����w�O,��������,2022/7/4,15:00,131,167
�����w�O,��������,2022/7/4,16:00,219,192
�����w�O,��������,2022/7/4,17:00,299,251
�����w�O,��������,2022/7/4,18:00,200,192
�����w�O,��������,2022/7/4,19:00,158,203
�����w�O,��������,2022/7/4,20:00,80,85
�����w�O,��������,2022/7/4,21:00,48,79
�����w�O,��������,2022/7/4,22:00,118,132
�����w�O,��������,2022/7/4,23:00,13,24
�����w�O,��������,2022/7/5,0:00,21,19
�����w�O,��������,2022/7/5,1:00,2,15
�����w�O,��������,2022/7/5,2:00,0,2
�����w�O,��������,2022/7/5,3:00,6,4
�����w�O,��������,2022/7/5,4:00,3,0
�����w�O,��������,2022/7/5,5:00,7,4
�����w�O,��������,2022/7/5,6:00,84,48
�����w�O,��������,2022/7/5,7:00,233,222
�����w�O,��������,2022/7/5,8:00,191,318
�����w�O,��������,2022/7/5,9:00,150,158
�����w�O,��������,2022/7/5,10:00,148,169
�����w�O,��������,2022/7/5,11:00,190,225
�����w�O,��������,2022/7/5,12:00,218,222
�����w�O,��������,2022/7/5,13:00,135,177
�����w�O,��������,2022/7/5,14:00,118,138
�����w�O,��������,2022/7/5,15:00,172,179
�����w�O,��������,2022/7/5,16:00,393,419
�����w�O,��������,2022/7/5,17:00,242,241
�����w�O,��������,2022/7/5,18:00,203,177
�����w�O,��������,2022/7/5,19:00,166,140
�����w�O,��������,2022/7/5,20:00,74,101
�����w�O,��������,2022/7/5,21:00,79,108
�����w�O,��������,2022/7/5,22:00,45,65
�����w�O,��������,2022/7/5,23:00,14,18
�����w�O,��������,2022/7/6,0:00,0,11
�����w�O,��������,2022/7/6,1:00,2,2
�����w�O,��������,2022/7/6,2:00,2,2
�����w�O,��������,2022/7/6,3:00,9,3
�����w�O,��������,2022/7/6,4:00,3,4
�����w�O,��������,2022/7/6,5:00,9,10
�����w�O,��������,2022/7/6,6:00,61,56
�����w�O,��������,2022/7/6,7:00,194,161
�����w�O,��������,2022/7/6,8:00,186,270
�����w�O,��������,2022/7/6,9:00,121,136
�����w�O,��������,2022/7/6,10:00,168,183
�����w�O,��������,2022/7/6,11:00,144,167
�����w�O,��������,2022/7/6,12:00,188,206
�����w�O,��������,2022/7/6,13:00,168,196
�����w�O,��������,2022/7/6,14:00,181,189
�����w�O,��������,2022/7/6,15:00,196,241
�����w�O,��������,2022/7/6,16:00,198,196
�����w�O,��������,2022/7/6,17:00,602,379
�����w�O,��������,2022/7/6,18:00,218,212
�����w�O,��������,2022/7/6,19:00,120,127
�����w�O,��������,2022/7/6,20:00,136,141
�����w�O,��������,2022/7/6,21:00,48,65
�����w�O,��������,2022/7/6,22:00,44,81
�����w�O,��������,2022/7/6,23:00,20,27
�����w�O,��������,2022/7/7,0:00,2,14
�����w�O,��������,2022/7/7,1:00,1,2
�����w�O,��������,2022/7/7,2:00,2,4
�����w�O,��������,2022/7/7,3:00,3,4
�����w�O,��������,2022/7/7,4:00,5,4
�����w�O,��������,2022/7/7,5:00,9,12
�����w�O,��������,2022/7/7,6:00,83,48
�����w�O,��������,2022/7/7,7:00,170,178
�����w�O,��������,2022/7/7,8:00,63,63
�����w�O,��������,2022/7/7,9:00,154,168
�����w�O,��������,2022/7/7,10:00,219,217
�����w�O,��������,2022/7/7,11:00,177,177
�����w�O,��������,2022/7/7,12:00,166,187
�����w�O,��������,2022/7/7,13:00,191,159
�����w�O,��������,2022/7/7,14:00,122,139
�����w�O,��������,2022/7/7,15:00,145,172
�����w�O,��������,2022/7/7,16:00,219,203
�����w�O,��������,2022/7/7,17:00,237,219
�����w�O,��������,2022/7/7,18:00,221,237
�����w�O,��������,2022/7/7,19:00,249,252
�����w�O,��������,2022/7/7,20:00,75,95
�����w�O,��������,2022/7/7,21:00,75,77
�����w�O,��������,2022/7/7,22:00,46,53
�����w�O,��������,2022/7/7,23:00,1,23
�����w�O,��������,2022/7/8,0:00,4,11
�����w�O,��������,2022/7/8,1:00,2,2
�����w�O,��������,2022/7/8,2:00,2,3
�����w�O,��������,2022/7/8,3:00,5,6
�����w�O,��������,2022/7/8,4:00,1,0
�����w�O,��������,2022/7/8,5:00,13,9
�����w�O,��������,2022/7/8,6:00,75,49
�����w�O,��������,2022/7/8,7:00,212,202
�����w�O,��������,2022/7/8,8:00,149,217
�����w�O,��������,2022/7/8,9:00,145,195
�����w�O,��������,2022/7/8,10:00,178,204
�����w�O,��������,2022/7/8,11:00,150,185
�����w�O,��������,2022/7/8,12:00,196,227
�����w�O,��������,2022/7/8,13:00,178,186
�����w�O,��������,2022/7/8,14:00,166,238
�����w�O,��������,2022/7/8,15:00,202,211
�����w�O,��������,2022/7/8,16:00,238,216
�����w�O,��������,2022/7/8,17:00,319,274
�����w�O,��������,2022/7/8,18:00,266,205
�����w�O,��������,2022/7/8,19:00,154,186
�����w�O,��������,2022/7/8,20:00,87,139
�����w�O,��������,2022/7/8,21:00,104,128
�����w�O,��������,2022/7/8,22:00,48,85
�����w�O,��������,2022/7/8,23:00,22,60
�����w�O,��������,2022/7/9,0:00,9,27
�����w�O,��������,2022/7/9,1:00,5,14
�����w�O,��������,2022/7/9,2:00,1,4
�����w�O,��������,2022/7/9,3:00,5,10
�����w�O,��������,2022/7/9,4:00,5,1
�����w�O,��������,2022/7/9,5:00,13,5
�����w�O,��������,2022/7/9,6:00,31,27
�����w�O,��������,2022/7/9,7:00,94,64
�����w�O,��������,2022/7/9,8:00,153,149
�����w�O,��������,2022/7/9,9:00,184,173
�����w�O,��������,2022/7/9,10:00,169,171
�����w�O,��������,2022/7/9,11:00,228,269
�����w�O,��������,2022/7/9,12:00,322,267
�����w�O,��������,2022/7/9,13:00,310,310
�����w�O,��������,2022/7/9,14:00,256,269
�����w�O,��������,2022/7/9,15:00,225,233
�����w�O,��������,2022/7/9,16:00,270,240
�����w�O,��������,2022/7/9,17:00,394,403
�����w�O,��������,2022/7/9,18:00,200,169
�����w�O,��������,2022/7/9,19:00,205,231
�����w�O,��������,2022/7/9,20:00,97,124
�����w�O,��������,2022/7/9,21:00,101,163
�����w�O,��������,2022/7/9,22:00,50,85
�����w�O,��������,2022/7/9,23:00,22,59
�����w�O,��������,2022/7/10,0:00,6,17
�����w�O,��������,2022/7/10,1:00,1,8
�����w�O,��������,2022/7/10,2:00,1,2
�����w�O,��������,2022/7/10,3:00,6,4
�����w�O,��������,2022/7/10,4:00,4,4
�����w�O,��������,2022/7/10,5:00,18,12
�����w�O,��������,2022/7/10,6:00,27,32
�����w�O,��������,2022/7/10,7:00,74,53
�����w�O,��������,2022/7/10,8:00,144,105
�����w�O,��������,2022/7/10,9:00,178,163
�����w�O,��������,2022/7/10,10:00,243,213
�����w�O,��������,2022/7/10,11:00,233,220
�����w�O,��������,2022/7/10,12:00,238,227
�����w�O,��������,2022/7/10,13:00,226,233
�����w�O,��������,2022/7/10,14:00,234,303
�����w�O,��������,2022/7/10,15:00,273,300
�����w�O,��������,2022/7/10,16:00,233,249
�����w�O,��������,2022/7/10,17:00,207,235
�����w�O,��������,2022/7/10,18:00,142,152
�����w�O,��������,2022/7/10,19:00,157,135
�����w�O,��������,2022/7/10,20:00,99,113
�����w�O,��������,2022/7/10,21:00,54,74
�����w�O,��������,2022/7/10,22:00,26,50
�����w�O,��������,2022/7/10,23:00,8,13
�����w�O,��������,2022/7/11,0:00,4,11
�����w�O,��������,2022/7/11,1:00,3,0
�����w�O,��������,2022/7/11,2:00,0,1
�����w�O,��������,2022/7/11,3:00,3,2
�����w�O,��������,2022/7/11,4:00,1,3
�����w�O,��������,2022/7/11,5:00,14,11
�����w�O,��������,2022/7/11,6:00,71,49
�����w�O,��������,2022/7/11,7:00,180,157
�����w�O,��������,2022/7/11,8:00,125,200
�����w�O,��������,2022/7/11,9:00,144,160
�����w�O,��������,2022/7/11,10:00,153,152
�����w�O,��������,2022/7/11,11:00,177,209
�����w�O,��������,2022/7/11,12:00,166,228
�����w�O,��������,2022/7/11,13:00,165,141
�����w�O,��������,2022/7/11,14:00,180,196
�����w�O,��������,2022/7/11,15:00,147,171
�����w�O,��������,2022/7/11,16:00,270,279
�����w�O,��������,2022/7/11,17:00,234,208
�����w�O,��������,2022/7/11,18:00,213,196
�����w�O,��������,2022/7/11,19:00,159,144
�����w�O,��������,2022/7/11,20:00,100,123
�����w�O,��������,2022/7/11,21:00,59,77
�����w�O,��������,2022/7/11,22:00,30,25
�����w�O,��������,2022/7/11,23:00,38,45
�����w�O,��������,2022/7/12,0:00,27,35
�����w�O,��������,2022/7/12,1:00,0,3
�����w�O,��������,2022/7/12,2:00,0,4
�����w�O,��������,2022/7/12,3:00,1,3
�����w�O,��������,2022/7/12,4:00,3,4
�����w�O,��������,2022/7/12,5:00,8,5
�����w�O,��������,2022/7/12,6:00,73,52
�����w�O,��������,2022/7/12,7:00,180,139
�����w�O,��������,2022/7/12,8:00,118,199
�����w�O,��������,2022/7/12,9:00,134,153
�����w�O,��������,2022/7/12,10:00,160,202
�����w�O,��������,2022/7/12,11:00,169,171
�����w�O,��������,2022/7/12,12:00,159,195
�����w�O,��������,2022/7/12,13:00,195,177
�����w�O,��������,2022/7/12,14:00,130,174
�����w�O,��������,2022/7/12,15:00,140,153
�����w�O,��������,2022/7/12,16:00,224,228
�����w�O,��������,2022/7/12,17:00,266,233
�����w�O,��������,2022/7/12,18:00,266,227
�����w�O,��������,2022/7/12,19:00,248,246
�����w�O,��������,2022/7/12,20:00,264,279
�����w�O,��������,2022/7/12,21:00,46,84
�����w�O,��������,2022/7/12,22:00,28,53
�����w�O,��������,2022/7/12,23:00,14,37
�����w�O,��������,2022/7/13,0:00,8,10
�����w�O,��������,2022/7/13,1:00,2,5
�����w�O,��������,2022/7/13,2:00,0,2
�����w�O,��������,2022/7/13,3:00,3,2
�����w�O,��������,2022/7/13,4:00,1,3
�����w�O,��������,2022/7/13,5:00,12,18
�����w�O,��������,2022/7/13,6:00,78,44
�����w�O,��������,2022/7/13,7:00,212,189
�����w�O,��������,2022/7/13,8:00,141,250
�����w�O,��������,2022/7/13,9:00,124,141
�����w�O,��������,2022/7/13,10:00,167,188
�����w�O,��������,2022/7/13,11:00,169,153
�����w�O,��������,2022/7/13,12:00,152,179
�����w�O,��������,2022/7/13,13:00,148,196
�����w�O,��������,2022/7/13,14:00,166,175
�����w�O,��������,2022/7/13,15:00,137,221
�����w�O,��������,2022/7/13,16:00,205,214
�����w�O,��������,2022/7/13,17:00,309,269
�����w�O,��������,2022/7/13,18:00,226,276
�����w�O,��������,2022/7/13,19:00,185,202
�����w�O,��������,2022/7/13,20:00,424,375
�����w�O,��������,2022/7/13,21:00,79,107
�����w�O,��������,2022/7/13,22:00,36,59
�����w�O,��������,2022/7/13,23:00,9,32
�����w�O,��������,2022/7/14,0:00,7,19
�����w�O,��������,2022/7/14,1:00,0,4
�����w�O,��������,2022/7/14,2:00,2,2
�����w�O,��������,2022/7/14,3:00,4,5
�����w�O,��������,2022/7/14,4:00,1,0
�����w�O,��������,2022/7/14,5:00,18,10
�����w�O,��������,2022/7/14,6:00,76,42
�����w�O,��������,2022/7/14,7:00,238,196
�����w�O,��������,2022/7/14,8:00,117,150
�����w�O,��������,2022/7/14,9:00,116,142
�����w�O,��������,2022/7/14,10:00,139,136
�����w�O,��������,2022/7/14,11:00,140,129
�����w�O,��������,2022/7/14,12:00,174,201
�����w�O,��������,2022/7/14,13:00,146,158
�����w�O,��������,2022/7/14,14:00,120,163
�����w�O,��������,2022/7/14,15:00,144,148
�����w�O,��������,2022/7/14,16:00,183,177
�����w�O,��������,2022/7/14,17:00,235,217
�����w�O,��������,2022/7/14,18:00,201,178
�����w�O,��������,2022/7/14,19:00,163,183
�����w�O,��������,2022/7/14,20:00,72,119
�����w�O,��������,2022/7/14,21:00,57,89
�����w�O,��������,2022/7/14,22:00,55,83
�����w�O,��������,2022/7/14,23:00,19,28
�����w�O,��������,2022/7/15,0:00,7,8
�����w�O,��������,2022/7/15,1:00,23,39
�����w�O,��������,2022/7/15,2:00,2,3
�����w�O,��������,2022/7/15,3:00,4,5
�����w�O,��������,2022/7/15,4:00,1,0
�����w�O,��������,2022/7/15,5:00,14,11
�����w�O,��������,2022/7/15,6:00,79,45
�����w�O,��������,2022/7/15,7:00,185,158
�����w�O,��������,2022/7/15,8:00,139,222
�����w�O,��������,2022/7/15,9:00,116,155
�����w�O,��������,2022/7/15,10:00,149,213
�����w�O,��������,2022/7/15,11:00,156,176
�����w�O,��������,2022/7/15,12:00,229,252
�����w�O,��������,2022/7/15,13:00,156,208
�����w�O,��������,2022/7/15,14:00,145,185
�����w�O,��������,2022/7/15,15:00,165,200
�����w�O,��������,2022/7/15,16:00,319,327
�����w�O,��������,2022/7/15,17:00,290,255
�����w�O,��������,2022/7/15,18:00,436,424
�����w�O,��������,2022/7/15,19:00,309,306
�����w�O,��������,2022/7/15,20:00,136,126
�����w�O,��������,2022/7/15,21:00,84,95
�����w�O,��������,2022/7/15,22:00,56,93
�����w�O,��������,2022/7/15,23:00,33,75
�����w�O,��������,2022/7/16,0:00,11,14
�����w�O,��������,2022/7/16,1:00,4,13
�����w�O,��������,2022/7/16,2:00,3,8
�����w�O,��������,2022/7/16,3:00,5,8
�����w�O,��������,2022/7/16,4:00,0,2
�����w�O,��������,2022/7/16,5:00,13,11
�����w�O,��������,2022/7/16,6:00,55,27
�����w�O,��������,2022/7/16,7:00,123,74
�����w�O,��������,2022/7/16,8:00,162,200
�����w�O,��������,2022/7/16,9:00,195,200
�����w�O,��������,2022/7/16,10:00,324,335
�����w�O,��������,2022/7/16,11:00,331,331
�����w�O,��������,2022/7/16,12:00,277,309
�����w�O,��������,2022/7/16,13:00,269,308
�����w�O,��������,2022/7/16,14:00,297,341
�����w�O,��������,2022/7/16,15:00,299,318
�����w�O,��������,2022/7/16,16:00,360,326
�����w�O,��������,2022/7/16,17:00,293,308
�����w�O,��������,2022/7/16,18:00,272,220
�����w�O,��������,2022/7/16,19:00,202,216
�����w�O,��������,2022/7/16,20:00,135,158
�����w�O,��������,2022/7/16,21:00,80,136
�����w�O,��������,2022/7/16,22:00,52,111
�����w�O,��������,2022/7/16,23:00,26,57
�����w�O,��������,2022/7/17,0:00,6,22
�����w�O,��������,2022/7/17,1:00,3,4
�����w�O,��������,2022/7/17,2:00,0,1
�����w�O,��������,2022/7/17,3:00,5,6
�����w�O,��������,2022/7/17,4:00,6,5
�����w�O,��������,2022/7/17,5:00,21,17
�����w�O,��������,2022/7/17,6:00,69,57
�����w�O,��������,2022/7/17,7:00,135,125
�����w�O,��������,2022/7/17,8:00,342,413
�����w�O,��������,2022/7/17,9:00,307,356
�����w�O,��������,2022/7/17,10:00,435,328
�����w�O,��������,2022/7/17,11:00,422,339
�����w�O,��������,2022/7/17,12:00,424,411
�����w�O,��������,2022/7/17,13:00,382,393
�����w�O,��������,2022/7/17,14:00,436,403
�����w�O,��������,2022/7/17,15:00,420,381
�����w�O,��������,2022/7/17,16:00,451,394
�����w�O,��������,2022/7/17,17:00,337,356
�����w�O,��������,2022/7/17,18:00,346,303
�����w�O,��������,2022/7/17,19:00,209,234
�����w�O,��������,2022/7/17,20:00,139,141
�����w�O,��������,2022/7/17,21:00,80,112
�����w�O,��������,2022/7/17,22:00,34,77
�����w�O,��������,2022/7/17,23:00,12,41
�����w�O,��������,2022/7/18,0:00,2,17
�����w�O,��������,2022/7/18,1:00,3,2
�����w�O,��������,2022/7/18,2:00,0,5
�����w�O,��������,2022/7/18,3:00,5,3
�����w�O,��������,2022/7/18,4:00,4,6
�����w�O,��������,2022/7/18,5:00,28,13
�����w�O,��������,2022/7/18,6:00,86,108
�����w�O,��������,2022/7/18,7:00,101,84
�����w�O,��������,2022/7/18,8:00,120,157
�����w�O,��������,2022/7/18,9:00,254,224
�����w�O,��������,2022/7/18,10:00,382,368
�����w�O,��������,2022/7/18,11:00,351,292
�����w�O,��������,2022/7/18,12:00,314,314
�����w�O,��������,2022/7/18,13:00,310,344
�����w�O,��������,2022/7/18,14:00,278,319
�����w�O,��������,2022/7/18,15:00,245,289
�����w�O,��������,2022/7/18,16:00,502,343
�����w�O,��������,2022/7/18,17:00,270,269
�����w�O,��������,2022/7/18,18:00,190,161
�����w�O,��������,2022/7/18,19:00,106,112
�����w�O,��������,2022/7/18,20:00,59,78
�����w�O,��������,2022/7/18,21:00,48,58
�����w�O,��������,2022/7/18,22:00,12,25
�����w�O,��������,2022/7/18,23:00,6,10
�����w�O,��������,2022/7/19,0:00,0,6
�����w�O,��������,2022/7/19,1:00,1,0
�����w�O,��������,2022/7/19,2:00,0,2
�����w�O,��������,2022/7/19,3:00,3,3
�����w�O,��������,2022/7/19,4:00,3,2
�����w�O,��������,2022/7/19,5:00,8,5
�����w�O,��������,2022/7/19,6:00,55,37
�����w�O,��������,2022/7/19,7:00,190,192
�����w�O,��������,2022/7/19,8:00,122,181
�����w�O,��������,2022/7/19,9:00,89,143
�����w�O,��������,2022/7/19,10:00,113,114
�����w�O,��������,2022/7/19,11:00,110,132
�����w�O,��������,2022/7/19,12:00,141,172
�����w�O,��������,2022/7/19,13:00,114,146
�����w�O,��������,2022/7/19,14:00,139,156
�����w�O,��������,2022/7/19,15:00,150,173
�����w�O,��������,2022/7/19,16:00,165,178
�����w�O,��������,2022/7/19,17:00,292,252
�����w�O,��������,2022/7/19,18:00,208,179
�����w�O,��������,2022/7/19,19:00,158,138
�����w�O,��������,2022/7/19,20:00,69,87
�����w�O,��������,2022/7/19,21:00,58,78
�����w�O,��������,2022/7/19,22:00,26,49
�����w�O,��������,2022/7/19,23:00,5,15
�����w�O,��������,2022/7/20,0:00,3,3
�����w�O,��������,2022/7/20,1:00,1,3
�����w�O,��������,2022/7/20,2:00,2,1
�����w�O,��������,2022/7/20,3:00,3,2
�����w�O,��������,2022/7/20,4:00,3,4
�����w�O,��������,2022/7/20,5:00,12,8
�����w�O,��������,2022/7/20,6:00,87,72
�����w�O,��������,2022/7/20,7:00,166,169
�����w�O,��������,2022/7/20,8:00,131,255
�����w�O,��������,2022/7/20,9:00,129,155
�����w�O,��������,2022/7/20,10:00,138,182
�����w�O,��������,2022/7/20,11:00,162,175
�����w�O,��������,2022/7/20,12:00,189,248
�����w�O,��������,2022/7/20,13:00,443,348
�����w�O,��������,2022/7/20,14:00,240,272
�����w�O,��������,2022/7/20,15:00,180,237
�����w�O,��������,2022/7/20,16:00,264,233
�����w�O,��������,2022/7/20,17:00,257,206
�����w�O,��������,2022/7/20,18:00,226,195
�����w�O,��������,2022/7/20,19:00,153,148
�����w�O,��������,2022/7/20,20:00,205,105
�����w�O,��������,2022/7/20,21:00,103,111
�����w�O,��������,2022/7/20,22:00,42,51
�����w�O,��������,2022/7/20,23:00,10,20
�����w�O,��������,2022/7/21,0:00,5,9
�����w�O,��������,2022/7/21,1:00,0,2
�����w�O,��������,2022/7/21,2:00,0,1
�����w�O,��������,2022/7/21,3:00,4,5
�����w�O,��������,2022/7/21,4:00,2,2
�����w�O,��������,2022/7/21,5:00,13,13
�����w�O,��������,2022/7/21,6:00,57,45
�����w�O,��������,2022/7/21,7:00,152,129
�����w�O,��������,2022/7/21,8:00,125,185
�����w�O,��������,2022/7/21,9:00,138,146
�����w�O,��������,2022/7/21,10:00,128,138
�����w�O,��������,2022/7/21,11:00,146,193
�����w�O,��������,2022/7/21,12:00,162,201
�����w�O,��������,2022/7/21,13:00,120,131
�����w�O,��������,2022/7/21,14:00,144,155
�����w�O,��������,2022/7/21,15:00,187,187
�����w�O,��������,2022/7/21,16:00,147,155
�����w�O,��������,2022/7/21,17:00,210,144
�����w�O,��������,2022/7/21,18:00,190,168
�����w�O,��������,2022/7/21,19:00,173,168
�����w�O,��������,2022/7/21,20:00,77,99
�����w�O,��������,2022/7/21,21:00,41,72
�����w�O,��������,2022/7/21,22:00,24,34
�����w�O,��������,2022/7/21,23:00,4,6
�����w�O,��������,2022/7/22,0:00,3,4
�����w�O,��������,2022/7/22,1:00,0,1
�����w�O,��������,2022/7/22,2:00,3,2
�����w�O,��������,2022/7/22,3:00,6,5
�����w�O,��������,2022/7/22,4:00,2,2
�����w�O,��������,2022/7/22,5:00,17,12
�����w�O,��������,2022/7/22,6:00,74,56
�����w�O,��������,2022/7/22,7:00,124,145
�����w�O,��������,2022/7/22,8:00,103,96
�����w�O,��������,2022/7/22,9:00,241,320
�����w�O,��������,2022/7/22,10:00,139,209
�����w�O,��������,2022/7/22,11:00,181,178
�����w�O,��������,2022/7/22,12:00,203,228
�����w�O,��������,2022/7/22,13:00,163,180
�����w�O,��������,2022/7/22,14:00,159,229
�����w�O,��������,2022/7/22,15:00,154,184
�����w�O,��������,2022/7/22,16:00,256,216
�����w�O,��������,2022/7/22,17:00,287,239
�����w�O,��������,2022/7/22,18:00,221,207
�����w�O,��������,2022/7/22,19:00,221,197
�����w�O,��������,2022/7/22,20:00,89,106
�����w�O,��������,2022/7/22,21:00,97,121
�����w�O,��������,2022/7/22,22:00,51,68
�����w�O,��������,2022/7/22,23:00,24,46
�����w�O,��������,2022/7/23,0:00,8,23
�����w�O,��������,2022/7/23,1:00,2,10
�����w�O,��������,2022/7/23,2:00,0,3
�����w�O,��������,2022/7/23,3:00,5,5
�����w�O,��������,2022/7/23,4:00,4,4
�����w�O,��������,2022/7/23,5:00,18,15
�����w�O,��������,2022/7/23,6:00,104,83
�����w�O,��������,2022/7/23,7:00,83,82
�����w�O,��������,2022/7/23,8:00,137,175
�����w�O,��������,2022/7/23,9:00,188,181
�����w�O,��������,2022/7/23,10:00,212,245
�����w�O,��������,2022/7/23,11:00,275,296
�����w�O,��������,2022/7/23,12:00,326,289
�����w�O,��������,2022/7/23,13:00,260,248
�����w�O,��������,2022/7/23,14:00,311,305
�����w�O,��������,2022/7/23,15:00,270,306
�����w�O,��������,2022/7/23,16:00,320,311
�����w�O,��������,2022/7/23,17:00,264,245
�����w�O,��������,2022/7/23,18:00,331,245
�����w�O,��������,2022/7/23,19:00,298,245
�����w�O,��������,2022/7/23,20:00,132,137
�����w�O,��������,2022/7/23,21:00,112,146
�����w�O,��������,2022/7/23,22:00,55,94
�����w�O,��������,2022/7/23,23:00,37,63
�����w�O,��������,2022/7/24,0:00,3,13
�����w�O,��������,2022/7/24,1:00,1,11
�����w�O,��������,2022/7/24,2:00,0,3
�����w�O,��������,2022/7/24,3:00,4,4
�����w�O,��������,2022/7/24,4:00,4,6
�����w�O,��������,2022/7/24,5:00,22,12
�����w�O,��������,2022/7/24,6:00,36,25
�����w�O,��������,2022/7/24,7:00,85,69
�����w�O,��������,2022/7/24,8:00,137,114
�����w�O,��������,2022/7/24,9:00,191,151
�����w�O,��������,2022/7/24,10:00,274,194
�����w�O,��������,2022/7/24,11:00,276,258
�����w�O,��������,2022/7/24,12:00,239,227
�����w�O,��������,2022/7/24,13:00,369,299
�����w�O,��������,2022/7/24,14:00,403,320
�����w�O,��������,2022/7/24,15:00,242,248
�����w�O,��������,2022/7/24,16:00,219,213
�����w�O,��������,2022/7/24,17:00,225,262
�����w�O,��������,2022/7/24,18:00,194,171
�����w�O,��������,2022/7/24,19:00,109,114
�����w�O,��������,2022/7/24,20:00,83,96
�����w�O,��������,2022/7/24,21:00,60,85
�����w�O,��������,2022/7/24,22:00,24,52
�����w�O,��������,2022/7/24,23:00,11,21
�����w�O,��������,2022/7/25,0:00,5,12
�����w�O,��������,2022/7/25,1:00,0,5
�����w�O,��������,2022/7/25,2:00,1,3
�����w�O,��������,2022/7/25,3:00,0,1
�����w�O,��������,2022/7/25,4:00,0,2
�����w�O,��������,2022/7/25,5:00,24,11
�����w�O,��������,2022/7/25,6:00,56,56
�����w�O,��������,2022/7/25,7:00,149,163
�����w�O,��������,2022/7/25,8:00,117,197